DECAYED
Showing default

BLACKJACK ACES-4, 56952 (Decayed)

Orbit data source: Space-Track

BLACKJACK ACES-4, 56952 was a payload satellite owned by DARPA (US) in LEO that was launched on Mon, 12 Jun 2023 UTC via an FALCON 9 launch vehicle from the Air Force Western Test Range (AFWTR). Payload-class satellites include a variety of spacecraft equipped with specific instruments for various scientific and technological missions. These include communications satellites like Starlink; space stations such as the ISS; scientific satellites like the Hubble; Earth observation satellites from companies like Planet Labs, Umbra, and HawkEye 360; GPS; miniature CubeSats for education and research; and military/defense satellites.

Not visible in the next 10 days
Identifier
56952, 2023-084W
Orbit
Decayed
Country
Flag of USUS
Related business
Manufacturer
BLCAN/LMSS
Mission
Decayed Defense Communications
Bus & Motor
X-SAT, Unknown motor
Mass
~200 kg wet, ~200 kg dry
Launch date (UTC)
2023-06-12 (3 years ago)
Launch vehicle
FALCON 9
Launch site
Air Force Western Test Range (AFWTR)
Object type
Payload
Rocket body
Debris
Shape & HBR
Box, 2.6 m
Radar Cross Section
0.875 m², Large (>1 m²)

Expand to show TLE details & history
Last TLE update: 4 days ago

TLE from 4 days ago
0 BLACKJACK ACES-4
1 56952U 23084W   26030.83958131  .13023617  26890-5  16733-3 0  9999
2 56952  97.5252 190.3044 0012431 258.1516 101.8394 16.48891214147955
Epoch: 2026-01-30T20:08Z
TLE epoch observation values (Epoch: 2026-01-30T20:08:59.825Z)
Latitude
0.00002°
Longitude
117.98296°
Altitude
147.189 km
Speed
7.817 km/s
True Right ascension
12h 41m 13s
True Declination
0° 00' 00"
Sunlit
Object was in full shadow at epoch
Visualization orbit readout
Latitude
Unknown
Longitude
Unknown
Altitude
Unknown
Speed
Unknown
Apparent Right ascension
Unknown
Apparent Declination
Unknown
Sunlit
N/A
Visualization observer readout
Local Sidereal Time
02:39:58
Azimuth
Unknown
Elevation
Unknown
Doppler factor
Unknown
Orbital elements
Apogee altitude
147.16 km
Perigee altitude
130.957 km
Semi-major axis
6,517.196 km
Eccentricity
0.00124
Inclination
97.5252°
RAAN
190.3044°
Arg. of periapsis
258.1516°
True anomaly
101.97877°
Mean anomaly
101.8394°
Eccentric anomaly
101.90909°
Mean motion
4.12527 °/min
Orbital period
87.27 mins
BSTAR
0.00016733
Loading maneuver chart data...
Computing Atmospheric mass density...

Documentation

Showing up to 5 results
|